Franklin, NC

12:27 PM EDT on August 20, 2017 (GMT -0400)
Franklin

Weather History for K1A5 - June, 2014

Change the Weather History Date:

Monday, June 30, 2014

  Actual Average (KTOC) Record (KTOC)
Temperature  
Mean Temperature 71 °F -  
Max Temperature 81 °F 87 °F 93 °F (2016)
Min Temperature 61 °F 64 °F 67 °F (2016)
Cooling Degree Days 6    
Growing Degree Days 21 (Base 50)    
Moisture  
Dew Point 64 °F    
Average Humidity 88    
Maximum Humidity 100    
Minimum Humidity 56    
Precipitation  
Precipitation 0.62 in - - ()
Sea Level Pressure  
Sea Level Pressure 30.15 in    
Wind  
Wind Speed 0 mph (NNW)    
Max Wind Speed 5 mph    
Max Gust Speed -    
Visibility 9 miles    
Events Rain    
Averages and records for this station are not official NWS values.
T = Trace of Precipitation, MM = Missing Value Source: NWS Daily Summary

Daily Weather History Graph

Daily Weather History Graph

Search for Another Location

Airport or City:

Trip Planner

Search our weather history database for the weather conditions in past years. The results will help you decide how hot, cold, wet, or windy it might be!

Date:

Astronomy

Jun. 30, 2014 Rise Set
Actual Time 6:22 AM EDT 8:52 PM EDT
Civil Twilight 5:52 AM EDT 9:21 PM EDT
Nautical Twilight 5:15 AM EDT 9:58 PM EDT
Astronomical Twilight 4:35 AM EDT 10:39 PM EDT
Moon 9:26 AM EDT (6/30) 10:53 PM EDT (6/30)
Length of Visible Light 15h 29m
Length of Day
14h 29m
Waxing Crescent, 10% of the Moon is Illuminated
Jun 30
Waxing Crescent
Jul 5
First Quarter
Jul 12
Full
Jul 18
Last Quarter
Jul 26
New

Hourly Weather History & Observations

Time (EDT) Temp. Heat Index Dew Point Humidity Pressure Visibility Wind Dir Wind Speed Gust Speed Precip Events Conditions
12:15 AM 62.6 °F - 62.6 °F 100% 30.23 in 10.0 mi Calm Calm - N/A   Overcast
12:35 AM 62.2 °F - 62.2 °F 100% 30.23 in 10.0 mi Calm Calm - N/A   Overcast
12:55 AM 61.9 °F - 61.9 °F 100% 30.23 in 7.0 mi Calm Calm - N/A   Overcast
1:15 AM 61.9 °F - 61.9 °F 100% 30.22 in 10.0 mi Calm Calm - N/A   Overcast
1:35 AM 61.9 °F - 61.9 °F 100% 30.21 in 10.0 mi Calm Calm - N/A   Overcast
1:55 AM 61.7 °F - 61.7 °F 100% 30.20 in 7.0 mi Calm Calm - N/A   Overcast
2:15 AM 61.7 °F - 61.7 °F 100% 30.20 in 2.5 mi Calm Calm - N/A   Overcast
2:35 AM 61.7 °F - 61.7 °F 100% 30.20 in 4.0 mi Calm Calm - N/A   Overcast
2:55 AM 61.7 °F - 61.7 °F 100% 30.20 in 4.0 mi Calm Calm - N/A   Overcast
3:15 AM 61.3 °F - 61.3 °F 100% 30.20 in 10.0 mi Calm Calm - N/A   Overcast
3:35 AM 61.2 °F - 61.2 °F 100% 30.19 in 5.0 mi Calm Calm - N/A   Light Drizzle
3:55 AM 61.3 °F - 61.3 °F 100% 30.20 in 7.0 mi Calm Calm - N/A Rain Rain
4:15 AM 61.2 °F - 61.2 °F 100% 30.18 in 5.0 mi Calm Calm - 0.01 in Rain Heavy Rain
4:35 AM 61.0 °F - 61.0 °F 100% 30.18 in 7.0 mi Calm Calm - 0.03 in Rain Heavy Rain
4:55 AM 61.2 °F - 61.2 °F 100% 30.18 in 7.0 mi Calm Calm - 0.04 in Rain Rain
5:15 AM 61.2 °F - 61.2 °F 100% 30.18 in 10.0 mi Calm Calm - 0.01 in   Drizzle
5:35 AM 61.2 °F - 61.2 °F 100% 30.18 in 10.0 mi Calm Calm - 0.01 in   Light Drizzle
5:55 AM 61.2 °F - 61.2 °F 100% 30.18 in 10.0 mi Calm Calm - 0.01 in   Overcast
6:15 AM 61.3 °F - 61.3 °F 100% 30.19 in 10.0 mi Calm Calm - N/A   Overcast
6:35 AM 61.2 °F - 61.2 °F 100% 30.20 in 10.0 mi Calm Calm - N/A   Light Drizzle
6:55 AM 61.2 °F - 61.2 °F 100% 30.20 in 5.0 mi Calm Calm - 0.03 in Rain Light Rain
7:15 AM 61.2 °F - 61.2 °F 100% 30.20 in 10.0 mi Calm Calm - 0.01 in Rain Light Rain
7:35 AM 61.7 °F - 61.7 °F 100% 30.22 in 10.0 mi Calm Calm - 0.01 in Rain Rain
7:55 AM 61.7 °F - 61.7 °F 100% 30.22 in 1.0 mi Calm Calm - 0.35 in Rain Heavy Rain
8:15 AM 61.5 °F - 61.5 °F 100% 30.22 in 2.5 mi Calm Calm - 0.12 in Rain Rain
8:35 AM 61.5 °F - 61.5 °F 100% 30.22 in 7.0 mi Calm Calm - 0.15 in Rain Rain
8:55 AM 61.7 °F - 61.7 °F 100% 30.21 in 4.0 mi Calm Calm - 0.18 in Rain Light Rain
9:15 AM 62.1 °F - 62.1 °F 100% 30.22 in 10.0 mi Calm Calm - 0.01 in Rain Light Rain
9:35 AM 63.0 °F - 63.0 °F 100% 30.21 in 10.0 mi Calm Calm - 0.01 in Rain Light Rain
9:55 AM 64.2 °F - 64.2 °F 100% 30.21 in 10.0 mi Calm Calm - 0.01 in   Light Drizzle
10:15 AM 66.2 °F - 66.2 °F 100% 30.20 in 10.0 mi Calm Calm - N/A   Overcast
10:35 AM 66.9 °F - 65.3 °F 95% 30.20 in 10.0 mi Calm Calm - N/A   Overcast
10:55 AM 67.5 °F - 64.9 °F 92% 30.20 in 10.0 mi Calm Calm - N/A   Mostly Cloudy
11:15 AM 68.2 °F - 65.1 °F 90% 30.20 in 10.0 mi Calm Calm - N/A   Scattered Clouds
11:35 AM 70.5 °F - 63.7 °F 79% 30.20 in 10.0 mi Calm Calm - N/A   Scattered Clouds
11:55 AM 71.2 °F - 63.5 °F 76% 30.18 in 10.0 mi Calm Calm - N/A   Scattered Clouds
12:15 PM 72.5 °F - 64.0 °F 75% 30.17 in 10.0 mi Calm Calm - N/A   Scattered Clouds
12:35 PM 72.9 °F - 63.1 °F 71% 30.16 in 10.0 mi Calm Calm - N/A   Scattered Clouds
12:55 PM 72.7 °F - 63.3 °F 72% 30.16 in 10.0 mi Calm Calm - N/A   Scattered Clouds
1:15 PM 74.1 °F - 65.3 °F 74% 30.15 in 10.0 mi Calm Calm - N/A   Scattered Clouds
1:35 PM 75.4 °F - 65.7 °F 72% 30.14 in 10.0 mi Calm Calm - N/A   Clear
1:55 PM 75.4 °F - 65.3 °F 71% 30.14 in 10.0 mi Calm Calm - N/A   Scattered Clouds
2:15 PM 77.0 °F - 65.3 °F 67% 30.13 in 10.0 mi Calm Calm - N/A   Scattered Clouds
2:35 PM 77.4 °F - 65.5 °F 67% 30.13 in 10.0 mi Calm Calm - N/A   Scattered Clouds
2:55 PM 77.9 °F - 65.1 °F 65% 30.13 in 10.0 mi Calm Calm - N/A   Mostly Cloudy
3:15 PM 79.5 °F - 62.6 °F 56% 30.12 in 10.0 mi Calm Calm - N/A   Scattered Clouds
3:35 PM 80.6 °F 82.2 °F 64.0 °F 57% 30.11 in 10.0 mi Calm Calm - N/A   Scattered Clouds
3:55 PM 79.5 °F - 64.9 °F 61% 30.10 in 10.0 mi Calm Calm - N/A   Scattered Clouds
4:15 PM 79.5 °F - 66.2 °F 64% 30.09 in 10.0 mi North 4.6 mph - N/A   Mostly Cloudy
4:35 PM 79.9 °F - 66.9 °F 64% 30.08 in 10.0 mi NNW 4.6 mph - N/A   Mostly Cloudy
4:55 PM 80.4 °F 82.4 °F 66.0 °F 61% 30.07 in 10.0 mi Calm Calm - N/A   Scattered Clouds
5:15 PM 80.2 °F 82.2 °F 65.7 °F 61% 30.07 in 10.0 mi Calm Calm - N/A   Clear
5:35 PM 81.0 °F 83.0 °F 66.0 °F 60% 30.07 in 10.0 mi Calm Calm - N/A   Mostly Cloudy
5:55 PM 80.4 °F 82.6 °F 66.4 °F 62% 30.08 in 10.0 mi NNW 3.5 mph - N/A   Mostly Cloudy
6:15 PM 80.2 °F 82.3 °F 66.2 °F 62% 30.08 in 10.0 mi NNW 3.5 mph - N/A   Scattered Clouds
6:35 PM 79.7 °F - 66.2 °F 63% 30.07 in 10.0 mi Calm Calm - N/A   Clear
6:55 PM 79.9 °F - 66.6 °F 64% 30.06 in 10.0 mi Calm Calm - N/A   Clear
7:15 PM 78.4 °F - 67.3 °F 68% 30.07 in 10.0 mi Calm Calm - N/A   Clear
7:35 PM 77.0 °F - 68.0 °F 74% 30.07 in 10.0 mi Calm Calm - N/A   Clear
7:55 PM 75.0 °F - 70.3 °F 85% 30.06 in 10.0 mi Calm Calm - N/A   Clear
8:15 PM 74.1 °F - 70.5 °F 88% 30.06 in 10.0 mi Calm Calm - N/A   Clear
8:35 PM 72.5 °F - 72.5 °F 100% 30.06 in 10.0 mi Calm Calm - N/A   Clear
8:55 PM 71.2 °F - 71.2 °F 100% 30.07 in 10.0 mi Calm Calm - N/A   Clear
9:15 PM 69.8 °F - 69.8 °F 100% 30.08 in 10.0 mi Calm Calm - N/A   Clear
9:35 PM 69.1 °F - 69.1 °F 100% 30.08 in 7.0 mi Calm Calm - N/A   Clear
9:55 PM 68.4 °F - 68.4 °F 100% 30.09 in 5.0 mi Calm Calm - N/A   Clear
10:15 PM 67.3 °F - 67.3 °F 100% 30.09 in 5.0 mi Calm Calm - N/A   Scattered Clouds
10:35 PM 67.3 °F - 67.3 °F 100% 30.10 in 7.0 mi Calm Calm - N/A   Mostly Cloudy
10:55 PM 66.7 °F - 66.7 °F 100% 30.10 in 5.0 mi Calm Calm - N/A   Scattered Clouds
11:15 PM 66.0 °F - 66.0 °F 100% 30.11 in 7.0 mi Calm Calm - N/A   Scattered Clouds
11:35 PM 66.6 °F - 66.6 °F 100% 30.10 in 7.0 mi Calm Calm - N/A   Mostly Cloudy